Location: Brasstown Bald
(34.8693°N, 83.8103°W)
Time: 02:25:14
(UTC-04:00)

Amateur Radio Satellites - All Passes

Search period start: 24 July 2014 01:55
Search period end: 25 July 2014 01:55
Location: Brasstown Bald, 34.8693°N, 83.8103°W

Satellite Date Start Highest point End Downlink Frequencies (MHz)
Time Altitude Azimuth
PCSat 24 Jul 02:05:15 02:10:16 41° 110° (ESE) 02:15:19 145.825 MHz
Oscar 19 24 Jul 02:12:21 02:16:05 20° 94° (E) 02:19:48 437.125 CW, 437.150 USB
UOSAT-12 24 Jul 02:18:15 02:22:52 56° 244° (WSW) 02:27:24 437.025 FM, 437.400 FM
Oscar 16 24 Jul 02:38:51 02:43:40 39° 99° (E) 02:48:28 437.025 USB, Beacon 2401.1428
ITAMSAT 1 24 Jul 02:48:50 02:52:35 20° 95° (E) 02:56:19 435.822 SSB
ISS 24 Jul 02:55:58 02:58:47 25° 326° (NW) 03:01:38 145.800 FM
AO-27 24 Jul 03:05:53 03:10:27 31° 97° (E) 03:14:58 436.795 MHz FM
Uribyol 2 24 Jul 03:09:00 03:13:41 34° 98° (E) 03:18:20 436.500 FM
AO-Echo 24 Jul 03:12:25 03:17:07 37° 97° (E) 03:21:40 ?
Sapphire 24 Jul 03:14:15 03:19:29 50° 300° (WNW) 03:24:45 437.095 MHz 1200 baud AX-25 AFSK
JAS-1B 24 Jul 03:43:56 03:53:00 48° 97° (E) 04:00:49 435.800 - 435.900 CW/SSB
PCSat 24 Jul 03:49:26 03:53:47 24° 306° (NW) 03:58:11 145.825 MHz
Oscar 19 24 Jul 03:50:43 03:55:32 41° 289° (WNW) 04:00:20 437.125 CW, 437.150 USB
AO-7 24 Jul 04:13:24 04:14:50 11° 90° (E) 04:16:15 29.400 - 29.500 MHz
TMSAT-1 24 Jul 04:15:17 04:20:17 42° 99° (E) 04:25:15 436.925 FM
Oscar 16 24 Jul 04:18:54 04:22:43 21° 293° (WNW) 04:26:33 437.025 USB, Beacon 2401.1428
ITAMSAT 1 24 Jul 04:27:22 04:32:11 40° 289° (WNW) 04:36:58 435.822 SSB
Gurwin Techsat 1B 24 Jul 04:35:48 04:41:08 86° 284° (WNW) 04:46:26 435.225 FM
OPAL 24 Jul 04:38:13 04:43:09 74° 73° (ENE) 04:48:06 ?
AO-27 24 Jul 04:45:31 04:49:48 27° 292° (WNW) 04:54:05 436.795 MHz FM
Uribyol 2 24 Jul 04:48:52 04:52:56 24° 292° (WNW) 04:56:59 436.500 FM
AO-Echo 24 Jul 04:51:45 04:55:36 22° 293° (WNW) 04:59:21 ?
Uosat F 24 Jul 05:04:45 05:08:56 26° 96° (E) 05:13:05 435.120 FM
JAS-1B 24 Jul 05:34:37 05:43:07 38° 296° (WNW) 05:50:40 435.800 - 435.900 CW/SSB
TMSAT-1 24 Jul 05:56:01 05:59:52 21° 293° (WNW) 06:03:43 436.925 FM
AO-7 24 Jul 06:00:23 06:08:44 74° 106° (ESE) 06:17:00 29.400 - 29.500 MHz
KITSAT 1 24 Jul 06:05:17 06:07:17 11° 99° (E) 06:09:16 435.175 FM
JAS-2 24 Jul 06:27:36 06:28:27 10° 87° (E) 06:29:17 435.800 - 435.900 CW/SSB, 435.910 FM
Uosat F 24 Jul 06:43:20 06:47:39 30° 291° (WNW) 06:51:56 435.120 FM
STRAND 1 24 Jul 06:52:52 06:57:22 31° 70° (ENE) 07:01:51 ?
Lituanica SAT-1 24 Jul 07:32:19 07:34:19 33° 39° (NE) 07:36:19 437.275 MHz beacon
Oscar 10/S400 24 Jul 07:43:35 09:03:14 29° 255° (WSW) 12:18:31 145.825 - 145.975 CW/USB, Beacon 145.810 USB
Hamsat 24 Jul 07:50:22 07:54:36 64° 284° (WNW) 07:58:52 145.90 MHz
ISS 24 Jul 07:51:24 07:52:57 13° 26° (NNE) 07:54:30 145.800 FM
KITSAT 1 24 Jul 07:53:16 08:01:20 76° 114° (ESE) 08:09:26 435.175 FM
PANSAT 24 Jul 07:53:43 07:56:36 20° 165° (SSE) 07:59:29 not established
AO-7 24 Jul 07:54:39 08:00:39 23° 303° (WNW) 08:06:39 29.400 - 29.500 MHz
JAS-2 24 Jul 08:08:18 08:14:26 79° 285° (WNW) 08:19:53 435.800 - 435.900 CW/SSB, 435.910 FM
MaSat-1 24 Jul 08:08:46 08:13:07 25° 57° (ENE) 08:17:19 437.345 MHz
STRAND 1 24 Jul 08:32:14 08:36:29 26° 264° (W) 08:40:46 ?
Saudisat 1A 24 Jul 08:42:36 08:45:58 22° 111° (ESE) 08:49:22 436.775 MHz
SO-67 24 Jul 08:48:16 08:51:44 82° 283° (WNW) 08:55:12 435.3500 MHz FM
ISS 24 Jul 09:26:44 09:30:06 88° 43° (NE) 09:33:27 145.800 FM
PANSAT 24 Jul 09:32:55 09:36:21 31° 178° (S) 09:39:47 not established
UKube-1 24 Jul 09:43:44 09:44:58 11° 92° (E) 09:46:12 145.840 MHz, 145.915 MHz
MaSat-1 24 Jul 09:45:42 09:50:36 39° 254° (WSW) 09:55:13 437.345 MHz
KITSAT 1 24 Jul 09:51:14 09:57:30 24° 314° (NW) 10:03:49 435.175 FM
Saudisat 1A 24 Jul 10:21:24 10:25:21 32° 306° (NW) 10:29:20 436.775 MHz
Oscar 11 24 Jul 10:32:49 10:36:08 21° 95° (E) 10:39:27 145.825 FM, Beacon 2401.500 USB
HO-68 24 Jul 10:34:03 10:41:10 66° 103° (ESE) 10:48:14 435.675 MHz FM
PCSat 24 Jul 10:57:16 11:00:57 18° 51° (NE) 11:04:36 145.825 MHz
PANSAT 24 Jul 11:12:58 11:16:09 25° 191° (S) 11:19:19 not established
UKube-1 24 Jul 11:17:12 11:21:26 52° 286° (WNW) 11:25:38 145.840 MHz, 145.915 MHz
Sapphire 24 Jul 12:05:23 12:10:46 63° 62° (ENE) 12:16:07 437.095 MHz 1200 baud AX-25 AFSK
Oscar 11 24 Jul 12:08:37 12:12:16 27° 289° (WNW) 12:15:54 145.825 FM, Beacon 2401.500 USB
FUNcube-1 24 Jul 12:14:57 12:19:04 65° 284° (WNW) 12:23:13 145.950 - 145.970 MHz USB
HO-68 24 Jul 12:23:09 12:28:12 21° 299° (WNW) 12:33:15 435.675 MHz FM
PCSat 24 Jul 12:39:25 12:44:45 59° 248° (WSW) 12:50:03 145.825 MHz
PANSAT 24 Jul 12:54:49 12:55:45 11° 202° (SSW) 12:56:42 not established
Oscar 19 24 Jul 13:26:21 13:30:07 21° 67° (ENE) 13:33:54 437.125 CW, 437.150 USB
RS-15 24 Jul 13:45:53 13:55:23 33° 106° (ESE) 14:04:38 29.354 - 29.394 USB, Beacon 29.352 USB
Sapphire 24 Jul 13:50:49 13:53:35 14° 257° (WSW) 13:56:21 437.095 MHz 1200 baud AX-25 AFSK
Oscar 16 24 Jul 13:52:38 13:57:24 41° 71° (ENE) 14:02:10 437.025 USB, Beacon 2401.1428
SO-50 24 Jul 13:57:30 14:01:38 40° 114° (ESE) 14:05:51 436.795 FM
ITAMSAT 1 24 Jul 14:03:44 14:07:45 23° 67° (ENE) 14:11:46 435.822 SSB
Gurwin Techsat 1B 24 Jul 14:17:42 14:19:34 12° 62° (ENE) 14:21:27 435.225 FM
AO-27 24 Jul 14:20:47 14:25:28 34° 70° (ENE) 14:30:08 436.795 MHz FM
AO-Echo 24 Jul 14:21:39 14:26:23 35° 70° (ENE) 14:31:10 ?
JAS-1B 24 Jul 14:23:28 14:30:45 32° 61° (ENE) 14:38:49 435.800 - 435.900 CW/SSB
Uribyol 2 24 Jul 14:23:37 14:28:23 38° 71° (ENE) 14:33:10 436.500 FM
Oscar 19 24 Jul 15:04:25 15:09:10 39° 261° (W) 15:13:56 437.125 CW, 437.150 USB
AO-7 24 Jul 15:08:14 15:12:10 14° 52° (NE) 15:16:06 29.400 - 29.500 MHz
TMSAT-1 24 Jul 15:32:43 15:37:46 47° 72° (ENE) 15:42:50 436.925 FM
Oscar 16 24 Jul 15:33:14 15:36:52 19° 266° (W) 15:40:31 437.025 USB, Beacon 2401.1428
SO-50 24 Jul 15:39:06 15:42:21 19° 310° (NW) 15:45:39 436.795 FM
ITAMSAT 1 24 Jul 15:42:10 15:46:58 37° 262° (W) 15:51:48 435.822 SSB
KITSAT 1 24 Jul 15:51:16 15:57:17 22° 45° (NE) 16:03:16 435.175 FM
Gurwin Techsat 1B 24 Jul 15:53:31 15:58:49 77° 258° (WSW) 16:04:10 435.225 FM
RS-15 24 Jul 15:56:02 16:07:02 61° 304° (NW) 16:17:50 29.354 - 29.394 USB, Beacon 29.352 USB
AO-27 24 Jul 16:00:47 16:04:58 24° 264° (W) 16:09:11 436.795 MHz FM
AO-Echo 24 Jul 16:00:54 16:05:08 25° 265° (W) 16:09:26 ?
Uribyol 2 24 Jul 16:03:59 16:07:55 22° 265° (W) 16:11:53 436.500 FM
JAS-1B 24 Jul 16:12:27 16:20:32 58° 261° (W) 16:29:56 435.800 - 435.900 CW/SSB
Uosat F 24 Jul 16:14:57 16:19:07 27° 68° (ENE) 16:23:17 435.120 FM
UOSAT-12 24 Jul 16:25:54 16:30:28 84° 300° (WNW) 16:35:10 437.025 FM, 437.400 FM
OPAL 24 Jul 16:51:52 16:56:04 26° 98° (E) 17:00:16 ?
AO-7 24 Jul 16:55:13 17:03:31 74° 70° (ENE) 17:11:52 29.400 - 29.500 MHz
TMSAT-1 24 Jul 17:14:23 17:17:53 18° 267° (W) 17:21:24 436.925 FM
KITSAT 1 24 Jul 17:45:29 17:53:35 82° 245° (WSW) 18:01:38 435.175 FM
Uosat F 24 Jul 17:53:22 17:57:45 30° 263° (W) 18:02:10 435.120 FM
Oscar 10/S400 24 Jul 18:05:58 18:19:33 17° 148° (SSE) 18:31:04 145.825 - 145.975 CW/USB, Beacon 145.810 USB
UOSAT-12 24 Jul 18:10:36 18:11:21 10° 317° (NW) 18:12:06 437.025 FM, 437.400 FM
JAS-2 24 Jul 18:14:34 18:21:34 37° 68° (ENE) 18:28:20 435.800 - 435.900 CW/SSB, 435.910 FM
RS-15 24 Jul 18:15:26 18:22:15 18° 331° (NNW) 18:29:06 29.354 - 29.394 USB, Beacon 29.352 USB
OPAL 24 Jul 18:30:28 18:34:53 32° 292° (WNW) 18:39:21 ?
Hamsat 24 Jul 18:40:20 18:44:25 57° 75° (ENE) 18:48:31 145.90 MHz
Saudisat 1A 24 Jul 18:50:42 18:55:07 77° 60° (ENE) 18:59:29 436.775 MHz
AO-7 24 Jul 18:51:08 18:56:53 20° 266° (W) 19:02:41 29.400 - 29.500 MHz
STRAND 1 24 Jul 19:08:27 19:10:50 13° 92° (E) 19:13:12 ?
SO-67 24 Jul 19:19:07 19:21:33 18° 71° (ENE) 19:24:00 435.3500 MHz FM
KITSAT 1 24 Jul 19:44:38 19:47:44 13° 260° (W) 19:50:50 435.175 FM
JAS-2 24 Jul 19:58:58 20:06:19 43° 262° (W) 20:13:32 435.800 - 435.900 CW/SSB, 435.910 FM
RS-15 24 Jul 20:38:03 20:41:31 12° 10° (N) 20:45:01 29.354 - 29.394 USB, Beacon 29.352 USB
STRAND 1 24 Jul 20:45:19 20:50:21 58° 286° (WNW) 20:55:19 ?
SO-67 24 Jul 20:51:58 20:54:29 19° 265° (W) 20:57:01 435.3500 MHz FM
HO-68 24 Jul 20:59:18 21:05:39 36° 66° (ENE) 21:12:00 435.675 MHz FM
Oscar 11 24 Jul 21:26:37 21:28:11 12° 66° (ENE) 21:29:45 145.825 FM, Beacon 2401.500 USB
MaSat-1 24 Jul 21:58:55 22:00:49 13° 99° (E) 22:02:52 437.345 MHz
UKube-1 24 Jul 22:09:03 22:13:25 87° 77° (ENE) 22:17:49 145.840 MHz, 145.915 MHz
SO-50 24 Jul 22:32:48 22:36:03 18° 49° (NE) 22:39:19 436.795 FM
HO-68 24 Jul 22:46:36 22:53:11 39° 261° (W) 22:59:48 435.675 MHz FM
RS-15 24 Jul 22:49:31 22:59:05 32° 44° (NE) 23:08:52 29.354 - 29.394 USB, Beacon 29.352 USB
Oscar 11 24 Jul 22:59:42 23:03:53 51° 260° (W) 23:08:05 145.825 FM, Beacon 2401.500 USB
FUNcube-1 24 Jul 23:07:49 23:12:11 64° 76° (ENE) 23:16:27 145.950 - 145.970 MHz USB
Lituanica SAT-1 24 Jul 23:31:03 23:32:44 21° 132° (SE) 23:34:26 437.275 MHz beacon
MaSat-1 24 Jul 23:34:00 23:37:34 37° 299° (WNW) 23:41:43 437.345 MHz
SO-50 25 Jul 00:12:15 00:16:53 52° 245° (WSW) 00:21:34 436.795 FM
ISS 25 Jul 00:31:30 00:33:27 15° 127° (SE) 00:35:25 145.800 FM
UOSAT-12 25 Jul 00:58:59 01:03:16 33° 54° (NE) 01:07:30 437.025 FM, 437.400 FM
RS-15 25 Jul 01:01:19 01:12:20 72° 246° (WSW) 01:23:49 29.354 - 29.394 USB, Beacon 29.352 USB
Sapphire 25 Jul 01:04:11 01:06:17 12° 103° (ESE) 01:08:23 437.095 MHz 1200 baud AX-25 AFSK
Lituanica SAT-1 25 Jul 01:04:29 01:05:26 12° 327° (NNW) 01:06:24 437.275 MHz beacon
PCSat 25 Jul 01:35:16 01:39:50 29° 108° (ESE) 01:44:26 145.825 MHz
